Weather History for Robinson, IL

Change the Weather History Date:

Thursday, April 17, 2014

  Actual Average (KLWV) Record (KLWV)
Temperature  
Mean Temperature 51 °F 57 °F  
Max Temperature 68 °F 67 °F 86 °F (2004)
Min Temperature 35 °F 46 °F 30 °F (1997)
Degree Days  
Heating Degree Days 14 9  
Month to date heating degree days 204  
Since 1 July heating degree days 4501  
Cooling Degree Days 0 1  
Month to date cooling degree days 11  
Year to date cooling degree days 13  
Growing Degree Days 1 (Base 50)    
Moisture  
Dew Point 37 °F    
Average Humidity 59    
Maximum Humidity 85    
Minimum Humidity 33    
Precipitation  
Precipitation 0.00 in 0.13 in 0.81 in (1982)
Month to date precipitation 1.95  
Year to date precipitation 9.77  
Sea Level Pressure  
Sea Level Pressure 30.26 in    
Wind  
Wind Speed 6 mph (South)    
Max Wind Speed 16 mph    
Max Gust Speed 23 mph    
Visibility 10 miles    
Events      
T = Trace of Precipitation, MM = Missing Value Source: NWS Daily Summary

Daily Weather History Graph

Daily Weather History Graph

Search for Another Location

Airport:

Trip Planner

Search our weather history database for the weather conditions in past years. The results will help you decide how hot, cold, wet, or windy it might be!

Date:

Astronomy

Apr. 17, 2014 Rise Set
Actual Time 6:11 AM CDT 7:29 PM CDT
Civil Twilight 5:43 AM CDT 7:57 PM CDT
Nautical Twilight 5:10 AM CDT 8:30 PM CDT
Astronomical Twilight 4:35 AM CDT 9:05 PM CDT
Moon 10:14 PM CDT (4/17) 7:43 AM CDT (4/17)
Length of Visible Light 14h 14m
Length of Day
13h 18m
Waning Gibbous, 93% of the Moon is Illuminated
Apr 17
Waning Gibbous
Apr 22
Last Quarter
Apr 29
New
May 6
First Quarter
May 14
Full

Hourly Weather History & Observations

Time (CDT) Temp. Windchill Dew Point Humidity Pressure Visibility Wind Dir Wind Speed Gust Speed Precip Events Conditions
12:15 AM 44.6 °F 40.2 °F 29.8 °F 56% 30.20 in 10.0 mi SE 8.1 mph - N/A   Clear
12:35 AM 43.3 °F 41.7 °F 30.7 °F 61% 30.21 in 10.0 mi South 3.5 mph - N/A   Clear
12:55 AM 41.9 °F - 30.6 °F 64% 30.22 in 10.0 mi Calm Calm - N/A   Clear
1:15 AM 42.4 °F 40.7 °F 30.0 °F 61% 30.22 in 10.0 mi ESE 3.5 mph - N/A   Clear
1:35 AM 40.8 °F 38.8 °F 30.2 °F 66% 30.22 in 10.0 mi ESE 3.5 mph - N/A   Clear
1:55 AM 39.9 °F 37.8 °F 31.1 °F 71% 30.22 in 10.0 mi SE 3.5 mph - N/A   Clear
2:15 AM 39.4 °F 36.1 °F 31.5 °F 73% 30.21 in 10.0 mi SE 4.6 mph - N/A   Clear
2:35 AM 37.2 °F 32.6 °F 31.1 °F 79% 30.21 in 10.0 mi SE 5.8 mph - N/A   Clear
2:55 AM 38.8 °F 34.6 °F 30.9 °F 73% 30.22 in 10.0 mi SE 5.8 mph - N/A   Clear
3:15 AM 37.8 °F 34.2 °F 31.6 °F 79% 30.22 in 10.0 mi SE 4.6 mph - N/A   Clear
3:35 AM 36.7 °F 32.0 °F 31.6 °F 82% 30.22 in 10.0 mi SE 5.8 mph - N/A   Clear
3:55 AM 37.0 °F 32.4 °F 31.5 °F 80% 30.21 in 10.0 mi SE 5.8 mph - N/A   Clear
4:15 AM 38.5 °F 34.1 °F 32.0 °F 78% 30.22 in 10.0 mi SSE 5.8 mph - N/A   Clear
4:27 AM 39.2 °F 35.0 °F 32.0 °F 75% 30.22 in 10.0 mi SSE 5.8 mph - N/A   Clear
4:35 AM 38.3 °F 33.2 °F 32.0 °F 78% 30.22 in 10.0 mi SSE 6.9 mph - N/A   Clear
4:55 AM 38.8 °F 33.8 °F 32.0 °F 76% 30.22 in 10.0 mi SSE 6.9 mph - N/A   Clear
5:15 AM 38.3 °F - 32.0 °F 78% 30.23 in 10.0 mi Calm Calm - N/A   Clear
5:35 AM 40.1 °F 38.0 °F 31.3 °F 71% 30.23 in 10.0 mi SSE 3.5 mph - N/A   Clear
5:55 AM 39.7 °F 36.5 °F 31.3 °F 72% 30.24 in 10.0 mi SSE 4.6 mph - N/A   Clear
6:15 AM 37.0 °F - 31.8 °F 81% 30.24 in 10.0 mi Calm Calm - N/A   Clear
6:35 AM 35.2 °F - 31.3 °F 85% 30.25 in 10.0 mi Calm Calm - N/A   Clear
6:55 AM 36.7 °F - 32.0 °F 83% 30.25 in 10.0 mi Calm Calm - N/A   Clear
7:15 AM 41.4 °F - 35.1 °F 78% 30.26 in 10.0 mi Calm Calm - N/A   Clear
7:35 AM 43.7 °F 41.1 °F 36.1 °F 75% 30.27 in 10.0 mi South 4.6 mph - N/A   Clear
7:55 AM 47.5 °F - 37.0 °F 67% 30.28 in 10.0 mi South 6.9 mph - N/A   Clear
8:15 AM 49.8 °F - 35.6 °F 58% 30.28 in 10.0 mi South 10.4 mph - N/A   Clear
8:35 AM 51.3 °F - 37.0 °F 58% 30.29 in 10.0 mi South 12.7 mph - N/A   Clear
8:55 AM 52.9 °F - 37.0 °F 55% 30.29 in 10.0 mi South 13.8 mph 17.3 mph N/A   Clear
9:15 AM 54.7 °F - 37.6 °F 53% 30.30 in 10.0 mi SSW 10.4 mph - N/A   Clear
9:35 AM 56.8 °F - 36.3 °F 46% 30.30 in 10.0 mi SW 10.4 mph - N/A   Clear
9:55 AM 58.6 °F - 37.6 °F 46% 30.30 in 10.0 mi SSW 8.1 mph - N/A   Clear
10:15 AM 59.7 °F - 36.5 °F 42% 30.30 in 10.0 mi SW 9.2 mph - N/A   Clear
10:35 AM 61.9 °F - 36.1 °F 38% 30.30 in 10.0 mi SSW 9.2 mph 18.4 mph N/A   Clear
11:15 AM 63.0 °F - 36.5 °F 37% 30.30 in 10.0 mi SW 15.0 mph 23.0 mph N/A   Clear
11:35 AM 63.9 °F - 37.9 °F 38% 30.30 in 10.0 mi SW 12.7 mph 20.7 mph N/A   Clear
11:55 AM 64.8 °F - 38.5 °F 38% 30.30 in 10.0 mi South 13.8 mph 20.7 mph N/A   Clear
12:15 PM 64.4 °F - 39.6 °F 40% 30.30 in 10.0 mi SSW 16.1 mph 23.0 mph N/A   Clear
12:35 PM 64.4 °F - 41.2 °F 43% 30.29 in 10.0 mi South 16.1 mph 21.9 mph N/A   Clear
12:55 PM 64.6 °F - 39.2 °F 39% 30.29 in 10.0 mi SSW 12.7 mph - N/A   Clear
1:15 PM 64.9 °F - 38.5 °F 38% 30.28 in 10.0 mi SW 13.8 mph 19.6 mph N/A   Clear
1:35 PM 65.5 °F - 38.3 °F 37% 30.28 in 10.0 mi SSW 13.8 mph - N/A   Clear
1:55 PM 65.8 °F - 39.0 °F 37% 30.27 in 10.0 mi South 12.7 mph 16.1 mph N/A   Clear
2:15 PM 65.8 °F - 37.9 °F 36% 30.27 in 10.0 mi South 9.2 mph 18.4 mph N/A   Clear
2:35 PM 66.6 °F - 38.5 °F 36% 30.27 in 10.0 mi SW 9.2 mph - N/A   Clear
2:55 PM 66.4 °F - 40.5 °F 39% 30.26 in 10.0 mi South 11.5 mph - N/A   Clear
3:15 PM 67.5 °F - 38.5 °F 35% 30.26 in 10.0 mi WSW 12.7 mph - N/A   Clear
3:35 PM 67.5 °F - 37.2 °F 33% 30.24 in 10.0 mi SSW 4.6 mph - N/A   Clear
3:55 PM 67.6 °F - 41.9 °F 39% 30.24 in 10.0 mi South 10.4 mph - N/A   Clear
4:15 PM 67.6 °F - 40.8 °F 38% 30.24 in 10.0 mi SSW 10.4 mph - N/A   Clear
4:35 PM 67.3 °F - 40.6 °F 38% 30.25 in 10.0 mi South 10.4 mph - N/A   Clear
4:55 PM 66.6 °F - 39.9 °F 38% 30.25 in 10.0 mi South 12.7 mph 16.1 mph N/A   Clear
5:15 PM 66.7 °F - 39.6 °F 37% 30.25 in 10.0 mi South 11.5 mph - N/A   Clear
5:35 PM 66.6 °F - 39.2 °F 37% 30.25 in 10.0 mi South 8.1 mph - N/A   Clear
5:55 PM 66.7 °F - 40.1 °F 38% 30.25 in 10.0 mi SSW 6.9 mph - N/A   Clear
6:15 PM 65.5 °F - 39.2 °F 38% 30.26 in 10.0 mi South 10.4 mph - N/A   Clear
6:35 PM 64.4 °F - 38.7 °F 39% 30.26 in 10.0 mi South 9.2 mph - N/A   Clear
6:55 PM 62.8 °F - 41.4 °F 45% 30.26 in 10.0 mi South 6.9 mph - N/A   Clear
7:15 PM 60.8 °F - 41.7 °F 49% 30.25 in 10.0 mi South 5.8 mph - N/A   Clear
7:35 PM 59.5 °F - 41.7 °F 52% 30.25 in 10.0 mi South 5.8 mph - N/A   Clear
7:55 PM 58.1 °F - 41.7 °F 54% 30.25 in 10.0 mi South 3.5 mph - N/A   Clear
8:15 PM 58.1 °F - 41.2 °F 53% 30.26 in 10.0 mi SSE 3.5 mph - N/A   Clear
8:35 PM 54.1 °F - 43.7 °F 68% 30.25 in 10.0 mi SSE 3.5 mph - N/A   Clear
8:55 PM 52.2 °F - 45.0 °F 76% 30.26 in 10.0 mi Calm Calm - N/A   Clear
9:15 PM 51.6 °F - 44.6 °F 77% 30.27 in 10.0 mi Calm Calm - N/A   Clear
9:35 PM 51.1 °F - 43.3 °F 75% 30.27 in 10.0 mi Calm Calm - N/A   Clear
9:55 PM 50.9 °F - 43.7 °F 76% 30.27 in 10.0 mi Calm Calm - N/A   Clear
10:15 PM 50.2 °F - 43.0 °F 76% 30.27 in 10.0 mi Calm Calm - N/A   Clear
10:35 PM 49.6 °F - 43.7 °F 80% 30.27 in 10.0 mi Calm Calm - N/A   Clear
10:55 PM 49.1 °F - 43.9 °F 82% 30.27 in 10.0 mi Calm Calm - N/A   Clear
11:15 PM 48.2 °F - 43.7 °F 84% 30.27 in 10.0 mi Calm Calm - N/A   Clear
11:30 PM 48.6 °F - 43.3 °F 82% 30.27 in 10.0 mi Calm Calm - N/A   Clear
11:55 PM 49.1 °F - 43.3 °F 81% 30.27 in 10.0 mi Calm Calm - N/A   Clear